[[{"header":{"parameterUnit":"m.s-1","parameterCategory":1,"la1":30.2991,"la2":30.254,"lo1":-89.0895,"lo2":-89.0444,"dy":0.0017,"dx":0.0017,"nx":28,"ny":28,"refTime":"2023-08-29T21:00:00:Z","depth":0,"parameterNumber":2,"parameterNumberName":"U-component_of_WINDS"},"data":[0,0,0,0,0,0,0,0,0,0,0,0,0,0,0,0,0,0,0,0,0,0,0,0,0,0,0,0,0,0,0,0,0,0,0,0,0,0,0,0,0,0,0,0,0,0,0,0,0,0,0,0,0,0,0,0,0,0,-5.0781,-5.0782,0,-5.0886,-5.0887,-5.0888,-5.08,-5.0796,-5.0793,-5.0789,-5.09,-5.0906,-5.0912,0,0,0,0,0,0,0,0,0,0,0,0,0,-5.0506,-5.0511,-5.078,-5.0782,-5.0783,-5.0886,-5.0887,-5.0889,-5.0801,-5.0796,-5.0792,-5.0787,-5.0897,-5.0905,-5.0913,0,0,0,0,0,0,0,0,0,0,0,0,0,-5.062,-5.0513,-5.078,-5.0751,-5.075,-5.0886,-5.0887,-5.0889,-5.0802,-5.0796,-5.0791,-5.0785,-5.0895,-5.0904,-5.0914,-5.1084,0,0,-5.0943,-5.0947,0,0,0,0,0,0,0,0,-5.0613,-5.063,-5.0754,-5.0754,-5.0752,-5.0824,-5.0831,-5.0954,-5.0803,-5.0782,-5.0789,-5.0783,-5.0879,-5.089,-5.0922,-5.1089,-5.1094,-5.0944,-5.095,-5.0954,-5.0956,0,0,0,0,0,0,0,-5.0606,-5.0625,-5.0822,-5.0756,-5.0755,-5.0734,-5.0744,-5.0854,-5.0861,-5.0784,-5.0777,-5.0791,-5.0877,-5.0913,-5.0924,-5.1095,-5.0944,-5.0952,-5.0958,-5.0962,-5.1408,-5.1413,0,0,0,0,0,0,-5.06,-5.0619,-5.0819,-5.0825,-5.0668,-5.0744,-5.0755,-5.0807,-5.0859,-5.0862,-5.0796,-5.0786,-5.0899,-5.0913,-5.0927,-5.1129,-5.0954,-5.0963,-5.0968,-5.1402,-5.1409,-5.1416,0,0,0,0,0,0,-5.0595,-5.0619,-5.0815,-5.0721,-5.0744,-5.0754,-5.0813,-5.0812,-5.0847,-5.0868,-5.0869,-5.083,-5.0895,-5.0914,-5.1045,-5.1131,-5.0967,-5.0976,-5.1394,-5.1404,-5.1412,-5.1534,0,0,0,0,0,0,-5.0587,-5.0617,-5.0681,-5.0723,-5.0749,-5.093,-5.0819,-5.0818,-5.0863,-5.0852,-5.0901,-5.0903,-5.0892,-5.1032,-5.1055,-5.1141,-5.0983,-5.1387,-5.1399,-5.1409,-5.1522,-5.1546,-5.1566,0,0,0,0,0,-5.0578,-5.0712,-5.0685,-5.0709,-5.0829,-5.0935,-5.0951,-5.0934,-5.087,-5.0935,-5.0949,-5.0902,-5.1119,-5.1046,-5.1071,-5.1162,-5.1381,-5.1395,-5.1409,-5.1512,-5.1541,-5.1566,0,0,0,0,0,0,-5.0681,-5.0717,-5.0687,-5.0838,-5.0885,-5.092,-5.1001,-5.0966,-5.1031,-5.1018,-5.0996,-5.1008,-5.1147,-5.1168,-5.1086,-5.133,-5.124,-5.1259,-5.131,-5.1338,-5.1359,-5.135,-5.0991,0,0,0,0,0,-5.0721,-5.0803,-5.0831,-5.0962,-5.0986,-5.099,-5.1036,-5.102,-5.1067,-5.1086,-5.1109,-5.1158,-5.1236,-5.1289,-5.1363,-5.1526,-5.1535,-5.1601,-5.1624,-5.1642,-5.1658,-5.1745,-5.1775,-5.1461,-5.1461,-5.146,0,0,-5.0805,-5.0835,-5.0888,-5.0983,-5.1017,-5.1103,-5.1007,-5.1103,-5.1167,-5.1101,-5.1225,-5.1245,-5.1298,-5.1446,-5.1512,-5.1468,-5.1747,-5.1659,-5.1673,-5.168,-5.1762,-5.1792,-5.1818,-5.147,-5.1468,-5.1467,0,0,-5.1001,-5.1033,-5.1145,-5.1181,-5.1233,-5.1235,-5.1262,-5.1304,-5.1314,-5.1439,-5.1391,-5.1469,-5.1605,-5.1644,-5.1682,-5.1896,-5.1855,-5.1921,-5.2036,-5.2121,-5.2146,-5.2168,-5.2242,-5.227,-5.1938,-5.1938,-5.1939,0,-5.1099,-5.1226,-5.1207,-5.1306,-5.1349,-5.1294,-5.1408,-5.1444,-5.1518,-5.155,-5.1499,-5.167,-5.1701,-5.1857,-5.191,-5.1943,-5.1973,-5.1914,-5.2144,-5.2166,-5.2186,-5.2257,-5.2285,-5.1946,-5.1945,-5.1944,-5.1944,0,-5.1343,-5.1433,-5.1517,-5.1589,-5.1643,-5.1749,-5.1747,-5.1803,-5.1784,-5.1791,-5.192,-5.1956,-5.2036,-5.2073,-5.2055,-5.2227,-5.2198,-5.2147,-5.2055,-5.2223,-5.2289,-5.2317,-5.1957,-5.1954,-5.1952,-5.195,0,0,-5.1604,-5.1666,-5.1697,-5.1729,-5.1783,-5.1853,-5.1957,-5.2035,-5.2083,-5.2138,-5.2224,-5.2342,-5.2295,-5.2339,-5.2325,-5.24,-5.2566,-5.2339,-5.234,-5.2378,-5.2757,-5.2793,-5.2825,-5.254,-5.2546,-5.255,-5.2752,0,-5.1801,-5.1981,-5.1968,-5.2138,-5.222,-5.217,-5.2261,-5.2305,-5.2316,-5.2388,-5.2401,-5.2484,-5.2416,-5.2442,-5.2515,-5.253,-5.2641,-5.2516,-5.262,-5.2624,-5.2605,-5.286,-5.2898,-5.3087,-5.2778,-5.2782,-5.2785,0,-5.2054,-5.2116,-5.2294,-5.2336,-5.237,-5.2452,-5.2523,-5.2593,-5.2642,-5.2645,-5.2695,-5.2668,-5.2775,-5.2684,-5.283,-5.2745,-5.2787,-5.2802,-5.2809,-5.2815,-5.2712,-5.2871,-5.3146,-5.3174,-5.2826,-5.2823,-5.282,0,-5.2224,-5.2352,-5.2475,-5.2505,-5.2558,-5.2617,-5.2642,-5.2686,-5.2734,-5.2796,-5.2827,-5.2902,-5.2943,-5.3002,-5.2997,-5.2931,-5.3145,-5.3054,-5.3149,-5.315,-5.3194,-5.3191,-5.3478,-5.3227,-5.3226,-5.3226,-5.3225,0,-5.2443,-5.2554,-5.2552,-5.2627,-5.275,-5.2735,-5.2857,-5.2876,-5.2916,-5.2995,-5.2958,-5.3033,-5.3023,-5.3099,-5.3097,-5.3217,-5.3237,-5.3242,-5.3239,-5.3243,-5.3242,-5.3268,-5.3254,-5.3233,-5.3232,-5.323,-5.3229,0,-5.2652,-5.2656,-5.2786,-5.2826,-5.2839,-5.2928,-5.2962,-5.3034,-5.3043,-5.3143,-5.3166,-5.318,-5.3267,-5.3269,-5.337,-5.3368,-5.3515,-5.3499,-5.3497,-5.3493,-5.3588,-5.3578,-5.39,-5.394,-5.3666,-5.3668,-5.367,0,-5.279,-5.2874,-5.2923,-5.2973,-5.3002,-5.3083,-5.3131,-5.3121,-5.3173,-5.3237,-5.3301,-5.3385,-5.3451,-5.3593,-5.3613,-5.369,-5.3674,-5.3781,-5.3685,-5.3686,-5.3673,-5.3666,-5.3674,-5.3799,-5.3802,-5.3805,-5.3807,0,-5.3035,-5.3033,-5.3103,-5.3176,-5.3235,-5.3292,-5.3344,-5.3387,-5.3384,-5.3445,-5.3533,-5.3584,-5.3687,-5.377,-5.3845,-5.3872,-5.3839,-5.3838,-5.3863,-5.3867,-5.3861,-5.3863,-5.3546,-5.3829,-5.3827,-5.3825,-5.3824,-5.3823,-5.3211,-5.3283,-5.3329,-5.3409,-5.3448,-5.3498,-5.3567,-5.3585,-5.3658,-5.374,-5.3731,-5.3829,-5.3878,-5.3974,-5.4008,-5.4085,-5.4048,-5.4086,-5.4095,-5.4104,-5.4113,-5.3852,-5.4099,-5.4099,-5.4098,-5.4097,-5.4097,0,-5.3451,-5.3479,-5.3553,-5.3627,-5.3691,-5.3656,-5.3712,-5.3768,-5.3854,-5.3903,-5.3969,-5.4071,-5.4152,-5.4179,-5.4258,-5.4314,-5.4301,-5.4335,-5.4329,-5.4336,-5.4143,-5.4111,-5.4344,-5.4344,-5.4344,-5.4344,-5.4344,-5.4344,-5.3584,-5.3703,-5.3707,-5.3845,-5.3872,-5.3967,-5.4002,-5.4049,-5.4087,-5.4202,-5.4269,-5.4286,-5.4326,-5.4408,-5.4481,-5.4487,-5.4517,-5.4557,-5.4556,-5.4375,-5.435,-5.4326,-5.4296,-5.4564,-5.4564,-5.4742,-5.4744,-5.4745]},{"header":{"parameterUnit":"m.s-1","parameterCategory":1,"la1":30.2991,"la2":30.254,"lo1":-89.0895,"lo2":-89.0444,"dy":0.0017,"dx":0.0017,"nx":28,"ny":28,"refTime":"2023-08-29T21:00:00:Z","depth":0,"parameterNumber":3,"parameterNumberName":"V-component_of_WINDS"},"data":[0,0,0,0,0,0,0,0,0,0,0,0,0,0,0,0,0,0,0,0,0,0,0,0,0,0,0,0,0,0,0,0,0,0,0,0,0,0,0,0,0,0,0,0,0,0,0,0,0,0,0,0,0,0,0,0,0,0,2.7567,2.7567,0,2.7542,2.7542,2.7541,2.7555,2.7556,2.7557,2.7557,2.7524,2.7523,2.7521,0,0,0,0,0,0,0,0,0,0,0,0,0,2.7621,2.762,2.7567,2.7567,2.7566,2.7542,2.7542,2.7541,2.7555,2.7556,2.7557,2.7558,2.7525,2.7523,2.7521,0,0,0,0,0,0,0,0,0,0,0,0,0,2.7596,2.7619,2.7567,2.7571,2.7571,2.7542,2.7542,2.7541,2.7555,2.7556,2.7557,2.7558,2.7525,2.7523,2.7521,2.7485,0,0,2.7514,2.7513,0,0,0,0,0,0,0,0,2.7598,2.7594,2.757,2.757,2.757,2.7553,2.7548,2.7522,2.7555,2.7561,2.7557,2.7559,2.7532,2.753,2.7522,2.7483,2.7482,2.7514,2.7512,2.7511,2.751,0,0,0,0,0,0,0,2.7599,2.7595,2.7557,2.757,2.757,2.7571,2.7569,2.7543,2.7541,2.756,2.7561,2.7559,2.7533,2.7525,2.7522,2.7481,2.7514,2.7511,2.751,2.7509,2.741,2.7408,0,0,0,0,0,0,2.7602,2.7597,2.7558,2.7556,2.7587,2.7569,2.7567,2.7557,2.7541,2.754,2.7558,2.7559,2.7528,2.7524,2.752,2.7476,2.7511,2.7509,2.7508,2.7411,2.7409,2.7408,0,0,0,0,0,0,2.7603,2.7598,2.7559,2.7577,2.7572,2.7567,2.7557,2.7556,2.7548,2.7539,2.7538,2.755,2.7529,2.7524,2.7494,2.7475,2.7508,2.7506,2.7412,2.741,2.7409,2.7387,0,0,0,0,0,0,2.7604,2.7599,2.7586,2.7577,2.7571,2.7534,2.7555,2.7555,2.7545,2.7547,2.7532,2.753,2.7529,2.7497,2.7491,2.7472,2.7504,2.7414,2.7412,2.7409,2.7389,2.7385,2.7381,0,0,0,0,0,2.7606,2.758,2.7586,2.7581,2.7556,2.7533,2.753,2.7531,2.7544,2.753,2.7524,2.7531,2.7479,2.7494,2.7488,2.7467,2.7415,2.7412,2.7409,2.7391,2.7386,2.7381,0,0,0,0,0,0,2.7585,2.7579,2.7585,2.7555,2.7545,2.7536,2.7519,2.7525,2.7509,2.7511,2.7512,2.7508,2.7476,2.7469,2.7487,2.7431,2.7448,2.7444,2.7437,2.7431,2.7427,2.7428,2.7502,0,0,0,0,0,2.7578,2.7562,2.7556,2.7531,2.7525,2.7523,2.7513,2.7516,2.7504,2.7499,2.7491,2.7477,2.7457,2.7444,2.7426,2.7389,2.7384,2.7372,2.7368,2.7364,2.736,2.7337,2.7331,2.7399,2.7399,2.7399,0,0,2.7561,2.7555,2.7545,2.7526,2.7519,2.75,2.7519,2.7499,2.7484,2.7495,2.7466,2.746,2.7444,2.7411,2.7395,2.7403,2.734,2.7361,2.7358,2.7355,2.7334,2.7327,2.7322,2.7397,2.7397,2.7398,0,0,2.752,2.7516,2.7493,2.7485,2.7474,2.7473,2.7468,2.7458,2.7455,2.7427,2.7434,2.7415,2.7382,2.737,2.736,2.7316,2.732,2.731,2.7286,2.7264,2.7259,2.7254,2.7236,2.7229,2.7306,2.7306,2.7306,0,2.7499,2.7474,2.748,2.7459,2.745,2.7461,2.7437,2.7429,2.7411,2.7403,2.7414,2.7372,2.7362,2.7325,2.7314,2.7306,2.7298,2.731,2.726,2.7255,2.725,2.7233,2.7226,2.7304,2.7304,2.7305,2.7305,0,2.7448,2.7431,2.7413,2.7399,2.7387,2.7365,2.7365,2.7352,2.7356,2.7353,2.7323,2.7312,2.7291,2.7283,2.7285,2.7245,2.7251,2.7261,2.7277,2.7242,2.7226,2.7219,2.7302,2.7303,2.7303,2.7303,0,0,2.7392,2.7382,2.7375,2.7368,2.7357,2.7342,2.7319,2.7301,2.7289,2.7277,2.7256,2.7228,2.7237,2.7225,2.7226,2.7208,2.7171,2.722,2.7219,2.7209,2.7123,2.7114,2.7106,2.7175,2.7174,2.7173,2.7123,0,2.7349,2.7311,2.7316,2.7279,2.7261,2.7273,2.7252,2.7242,2.7239,2.7221,2.7217,2.7196,2.7211,2.7204,2.7186,2.7179,2.7153,2.7183,2.7152,2.7151,2.7153,2.7098,2.7088,2.7042,2.7117,2.7116,2.7115,0,2.7293,2.7281,2.7243,2.7234,2.7227,2.7209,2.7192,2.7177,2.7164,2.7163,2.7151,2.7155,2.7129,2.7149,2.7112,2.7132,2.712,2.7114,2.7112,2.7107,2.7129,2.7089,2.7028,2.702,2.7106,2.7106,2.7107,0,2.7252,2.7227,2.72,2.7194,2.7184,2.7171,2.7166,2.7155,2.7144,2.7128,2.712,2.7102,2.709,2.7074,2.7072,2.7087,2.7034,2.7054,2.7029,2.7029,2.7015,2.7015,2.6949,2.7012,2.7012,2.7012,2.7012,0,2.7202,2.7178,2.7182,2.7165,2.7138,2.7143,2.7114,2.711,2.7101,2.7081,2.709,2.7071,2.7071,2.7051,2.7049,2.7017,2.7013,2.7008,2.7008,2.7006,2.7006,2.6996,2.6998,2.701,2.7011,2.7011,2.7011,0,2.7151,2.7154,2.7125,2.7119,2.7116,2.7096,2.7089,2.7072,2.7071,2.7046,2.704,2.7036,2.7013,2.7011,2.6983,2.6982,2.6942,2.6946,2.6947,2.6947,2.6921,2.6922,2.6843,2.6832,2.6905,2.6904,2.6903,0,2.7118,2.7099,2.7092,2.7081,2.7075,2.7057,2.7046,2.705,2.7038,2.7023,2.7007,2.6986,2.6968,2.693,2.6923,2.6902,2.6903,2.6877,2.69,2.6898,2.6899,2.6899,2.6896,2.6871,2.6871,2.687,2.687,0,2.7057,2.7059,2.7044,2.703,2.7017,2.7005,2.6994,2.6983,2.6986,2.6971,2.6949,2.6936,2.6909,2.6886,2.6865,2.6857,2.6862,2.6863,2.6856,2.6852,2.6852,2.6849,2.6932,2.6864,2.6865,2.6865,2.6865,2.6865,2.7012,2.6996,2.6988,2.697,2.6963,2.6952,2.6936,2.6933,2.6916,2.6895,2.6899,2.6873,2.686,2.6833,2.6823,2.6802,2.681,2.68,2.6796,2.6793,2.6789,2.6859,2.6798,2.6798,2.6798,2.6798,2.6798,0,2.6949,2.6945,2.693,2.6915,2.69,2.6911,2.6899,2.6885,2.6864,2.6853,2.6837,2.681,2.6788,2.678,2.6758,2.6742,2.6744,2.6735,2.6735,2.6732,2.6785,2.6792,2.6734,2.6734,2.6734,2.6734,2.6734,2.6734,2.6915,2.6887,2.6889,2.6857,2.6853,2.683,2.6822,2.6811,2.6802,2.6773,2.6756,2.6753,2.6741,2.6719,2.6698,2.6696,2.6686,2.6676,2.6675,2.6723,2.6729,2.6735,2.6742,2.6675,2.6675,2.6624,2.6623,2.6623]}]]